Regional Weather Roundup
Issued by NWS Green Bay, WI

Home | Current Version | Previous Version | Graphics & Text | Print | Product List | Glossary Off
Versions: 1 2 3 4 5 6 7 8 9 10 11 12 13 14 15 16 17 18 19 20 21 22 23 24 25 26 27 28 29 30 31 32 33 34 35 36 37 38 39 40 41 42 43 44 45 46 47 48 49 50

000
ASUS43 KGRB 282011
RWRGRB

NORTH-CENTRAL AND NORTHEAST WISCONSIN REGIONAL WEATHER ROUNDUP
NATIONAL WEATHER SERVICE GREEN BAY WI
300 PM CDT TUE JUL 28 2015

WIZ005-009-010>012-018-019-282100-
NORTH CENTRAL WISCONSIN

CITY           SKY/WX    TMP DP  RH WIND       PRES   REMARKS
IRONWOOD       PTSUNNY   81  70  69 S8G16     29.81S
MANITOWISH WTR PTSUNNY   78  67  68 S13G20    29.90S
ARBOR VITAE    PTSUNNY   80  67  64 S10G16    29.91S
EAGLE RIVER    CLOUDY    78  63  58 S13G20    29.92S
LAND O LAKES   CLOUDY    80  64  57 S10G17    29.93S
RHINELANDER    PTSUNNY   81  65  58 S13G20    29.93S
PHILLIPS       CLOUDY    81  67  63 S16       29.89R
ANTIGO         PTSUNNY   80  66  60 S12G22    29.94S
TOMAHAWK       PTSUNNY   80  67  66 S6        29.92S
MERRILL        NOT AVBL
$$

WIZ013-073-282100-
NORTHEAST WISCONSIN

CITY           SKY/WX    TMP DP  RH WIND       PRES   REMARKS
IRON MOUNTAIN  CLOUDY    82  62  50 S12       29.93S
MARINETTE      CLOUDY    82  64  54 S13       29.92R
OCONTO         CLOUDY    87  67  51 SE10      29.90F
$$

WIZ017-030-035>037-045-282100-
CENTRAL WISCONSIN

CITY           SKY/WX    TMP DP  RH WIND       PRES   REMARKS
MEDFORD        CLOUDY    78  69  74 S9G18     29.92R
WAUSAU         CLOUDY    83  66  56 S14       29.90R
MOSINEE        MOSUNNY   81  68  65 S10       29.92R
MARSHFIELD     CLOUDY    79  67  66 S12       29.92R
WISC RAPIDS    CLOUDY    82  68  62 SW6       29.91R
STEVENS POINT  CLOUDY    80  66  62 S13       29.91R
WAUPACA        CLOUDY    85  67  53 SE7       29.89S
SHAWANO        CLOUDY    85  64  49 S7        29.91S
CLINTONVILLE   CLOUDY    82  63  51 S9        29.89F
$$

WIZ038-039-048-051-282100-
FOX VALLEY

CITY           SKY/WX    TMP DP  RH WIND       PRES   REMARKS
NWS GREEN BAY  CLOUDY    86  62  44 SE16      29.90F
APPLETON       PTSUNNY   84  57  39 SE18      29.90F
OSHKOSH        CLOUDY    85  64  49 S12G23    29.88F
FOND DU LAC    CLOUDY    86  66  51 S10G20    29.89F
$$

WIZ022-050-052-282100-
EAST CENTRAL WISCONSIN

CITY           SKY/WX    TMP DP  RH WIND       PRES   REMARKS
STURGEON BAY   CLOUDY    82  63  51 S16G22    29.96S
MANITOWOC      LGT RAIN  79  67  66 MISG      29.94F
SHEBOYGAN      MOSUNNY   83  66  56 SE13      29.93F
$$

LMZ563-521-522-541>543-282100-
LAKESHORE

STATION/POSITION TIME  TEMP    WIND        PRES    VSBY  WAVE
                       AIR SEA DIR/SP/G                  HT/PER
                 (UTC) (F)     (DEG/KT/KT) (MB)    (MI)  (FT/S)
SHEBOYGAN LKSHOR 2000   71     160/ 12/ 12 1013.8F
KEWAUNEE LKSHORE 1900   67     170/  9/  9 1013.8F
ALGOMA MARINA    1927          200/  8/  9   N/A
NORTHPORT PIER   1900   75     140/  9/ 11 1014.2F
N MID LAKE BUOY  1950   72 71  180/  8/  8 1014.4F         1
S GREEN BAY BUOY 2000   81 76  150/ 12/ 16 1014.3F
SISTER BAY LKSHO 1914   83     170/ 13/ 17   N/A
CHAMBERS ISLAND  1900   82     140/  4/ 11 1013.2F
MENOMINEE LKSHOR 1900   75     110/  7/  7 1014.1F
$$



USA.gov is the U.S. government's official web portal to all federal, state and local government web resources and services.